Lewiston, WA

2:58 PM PDT on May 26, 2018 (GMT -0700)
Lewiston-Nez Perce County

Weather History for KLWS - October, 2012

Change the Weather History Date:

Tuesday, October 30, 2012

  Actual Average Record
Temperature  
Mean Temperature 57 °F 47 °F  
Max Temperature 63 °F 55 °F 68 °F (1958)
Min Temperature 51 °F 38 °F 19 °F (1991)
Degree Days  
Heating Degree Days 8 18  
Month to date heating degree days 369 391  
Since 1 July heating degree days 381 505  
Cooling Degree Days 0 0  
Month to date cooling degree days 1 1  
Year to date cooling degree days 1034 805  
Growing Degree Days 7 (Base 50)    
Moisture  
Dew Point 50 °F    
Average Humidity 77    
Maximum Humidity 89    
Minimum Humidity 65    
Precipitation  
Precipitation T in 0.04 in 0.73 in (1997)
Month to date precipitation 2.15 0.92  
Year to date precipitation 13.41 10.12  
Snow  
Snow 0.00 in 0.00 in 1.20 in (1971)
Month to date snowfall 0.0 0.0  
Since 1 July snowfall 0.0 0.0  
Since 1 September snowfall 0.0 0.0  
Snow Depth 0.00 in    
Sea Level Pressure  
Sea Level Pressure 29.95 in    
Wind  
Wind Speed 4 mph (East)    
Max Wind Speed 14 mph    
Max Gust Speed -    
Visibility 10 miles    
Events      
T = Trace of Precipitation, MM = Missing Value Source: NWS Daily Summary

Daily Weather History Graph

Daily Weather History Graph

Search for Another Location

Airport or City:

Astronomy

Oct. 30, 2012 Rise Set
Actual Time 7:27 AM PDT 5:35 PM PDT
Civil Twilight 6:56 AM PDT 6:06 PM PDT
Nautical Twilight 6:20 AM PDT 6:42 PM PDT
Astronomical Twilight 5:45 AM PDT 7:17 PM PDT
Moon 6:02 PM PDT (10/30) 8:22 AM PDT (10/30)
Length of Visible Light 11h 10m
Length of Day
10h 08m
Full, 99% of the Moon is Illuminated
Oct 30
Full
Nov 6
Last Quarter
Nov 13
New
Nov 20
First Quarter
Nov 28
Full

Hourly Weather History & Observations

Time (PDT) Temp. Dew Point Humidity Pressure Visibility Wind Dir Wind Speed Gust Speed Precip Events Conditions
12:56 AM 54.0 °F 48.0 °F 80% 30.04 in 10.0 mi Calm Calm - N/A   Clear
1:56 AM 54.0 °F 46.9 °F 77% 30.04 in 10.0 mi Calm Calm - N/A   Mostly Cloudy
2:56 AM 54.0 °F 46.9 °F 77% 30.05 in 10.0 mi Calm Calm - N/A   Scattered Clouds
3:56 AM 53.1 °F 48.9 °F 86% 30.04 in 10.0 mi Calm Calm - N/A   Mostly Cloudy
4:56 AM 53.6 °F 48.2 °F 82% 29.99 in 10.0 mi East 11.5 mph - N/A   Clear
5:56 AM 52.0 °F 48.0 °F 86% 30.01 in 10.0 mi SE 5.8 mph - N/A   Partly Cloudy
6:56 AM 52.0 °F 48.0 °F 86% 29.99 in 10.0 mi SE 6.9 mph - N/A   Overcast
7:56 AM 54.0 °F 48.0 °F 80% 29.97 in 10.0 mi ENE 4.6 mph - N/A   Overcast
8:56 AM 53.1 °F 48.0 °F 83% 29.97 in 10.0 mi East 8.1 mph - N/A   Overcast
9:56 AM 55.4 °F 48.2 °F 77% 29.97 in 10.0 mi NE 3.5 mph - N/A   Overcast
10:56 AM 57.9 °F 50.0 °F 75% 29.97 in 10.0 mi NNE 4.6 mph - N/A   Overcast
11:56 AM 61.0 °F 51.1 °F 70% 29.95 in 10.0 mi NNE 8.1 mph - N/A   Clear
12:56 PM 62.1 °F 50.0 °F 65% 29.93 in 10.0 mi NE 3.5 mph - N/A   Overcast
1:56 PM 61.0 °F 51.1 °F 70% 29.92 in 10.0 mi ENE 5.8 mph - N/A   Overcast
2:56 PM 62.1 °F 51.1 °F 67% 29.92 in 7.0 mi Calm Calm - N/A   Overcast
3:56 PM 60.1 °F 52.0 °F 75% 29.92 in 9.0 mi WNW 3.5 mph - N/A   Overcast
4:56 PM 60.1 °F 50.0 °F 69% 29.92 in 10.0 mi Calm Calm - 0.00 in   Overcast
5:56 PM 57.9 °F 51.1 °F 78% 29.91 in 10.0 mi ESE 5.8 mph - N/A   Mostly Cloudy
6:56 PM 57.9 °F 51.1 °F 78% 29.92 in 10.0 mi Calm Calm - N/A   Overcast
7:56 PM 55.9 °F 51.1 °F 84% 29.91 in 10.0 mi ESE 4.6 mph - N/A   Clear
8:56 PM 57.9 °F 51.1 °F 78% 29.90 in 10.0 mi ENE 5.8 mph - N/A   Clear
9:56 PM 55.9 °F 51.1 °F 84% 29.90 in 10.0 mi Calm Calm - N/A   Clear
10:56 PM 55.0 °F 51.1 °F 86% 29.90 in 10.0 mi SE 4.6 mph - N/A   Partly Cloudy
11:56 PM 55.9 °F 51.1 °F 84% 29.88 in 10.0 mi ESE 5.8 mph - N/A   Clear